Retour au catalogue

STARLINK-5953

ActifCommunicationsVLEO
NORAD 56799·PAYLOAD·🇺🇸 United States

Lancé May 31, 2023 depuis Vandenberg Space Force Base

Loading…

Prochains Passages (prochaines 24 heures)

TLE

FraisSource: CelesTrak SupGP

Époque: Sep 14, 2026, 22:21 UTC

1 56799C 23078AJ  26257.93173611  .00005445  00000+0  45614-3 0  2576
2 56799  70.0013 227.3268 0002922 269.3980 184.1474 14.98341767    11

Suivez STARLINK-5953 en temps réel avec AllMySat

Download on the App Store